Vorticity
9 9 9 9 9 8 9 7 8 13 7 6 7 8 9 7 2 5 4 7 10 10 9 7 9 10 13 7 18 26 10 4 50 8 19 25 -4 21 21 20 9 -17 -20 16
8 8 8 8 8 8 8 9 8 7 7 5 8 11 9 10 8 9 12 9 7 6 5 8 12 12 20 20 16 3 18 26 20 38 10 2 11 -11 -8 1 18 15 23 27
8 9 8 8 9 8 8 8 6 6 8 10 8 10 11 11 16 14 16 17 13 11 11 16 12 8 11 27 14 -3 -16 5 11 8 33 24 10 33 -3 -24 29 2 2 44
8 8 8 8 8 8 7 6 7 8 9 12 12 10 11 10 11 14 8 10 9 18 21 15 9 13 17 13 30 21 -14 12 -27 -4 15 -8 38 28 35 -12 -13 10 1 12
7 8 8 9 8 8 6 5 6 10 11 10 9 10 16 12 16 14 14 17 10 9 9 4 11 8 10 15 6 18 32 55 24 12 5 10 14 -7 10 25 12 44 35 0
7 7 8 9 9 7 10 11 9 9 9 13 8 16 15 16 15 10 9 11 22 14 23 39 40 21 19 9 1 25 8 -6 22 10 9 23 25 9 21 7 25 -26 -6 -6
7 8 9 9 9 8 9 9 12 7 13 8 17 14 16 13 10 11 22 22 9 16 16 3 4 21 4 19 7 7 -17 20 54 24 -6 2 10 14 46 17 32 2 12 3
9 11 10 9 8 9 10 11 10 9 9 15 15 15 16 10 8 16 26 7 4 7 9 -1 15 4 10 26 26 6 10 -2 -4 9 18 29 -18 -20 -3 7 23 31 43 15
10 11 8 8 9 9 8 13 10 15 9 18 27 12 5 4 15 20 19 0 5 17 13 11 5 -8 19 34 24 27 9 28 5 3 18 13 39 -1 5 -8 40 18 14 11
9 9 8 9 10 10 10 10 21 11 8 17 15 12 24 17 9 18 12 2 9 3 8 18 -20 19 2 35 -2 -10 23 35 34 24 15 23 33 -2 6 -6 36 11 4 32
10 10 9 10 11 10 17 20 13 5 14 8 18 19 19 12 5 11 -6 8 15 17 0 13 7 5 25 -14 14 14 -3 -9 -3 12 26 24 -2 -3 -5 -4 -9 31 8 20
9 9 11 12 14 23 10 12 9 10 13 17 7 11 13 7 4 11 16 8 6 -2 4 6 7 12 -3 9 24 27 -4 12 28 10 18 19 12 1 -17 10 -1 12 1 11
11 11 11 20 16 13 8 16 17 9 7 -1 2 20 11 -1 29 28 6 12 6 24 -15 4 31 27 9 6 3 -13 20 28 1 18 19 16 6 16 2 12 8 43 -18 43
11 14 20 17 10 15 4 8 20 11 5 12 21 17 21 29 12 18 31 51 40 15 7 14 6 17 13 9 3 6 -26 30 18 21 -14 7 19 8 15 3 -2 -16 -21 41
18 17 13 11 19 8 18 9 14 21 21 8 10 18 24 25 15 9 10 13 23 22 13 -9 15 0 16 1 17 20 2 38 33 9 15 12 27 -3 28 7 31 -17 18 7
15 12 9 15 11 10 17 32 30 22 31 11 3 15 15 21 19 15 16 19 13 10 11 16 5 17 18 -5 3 2 8 -5 24 26 11 10 27 -22 22 34 -3 47 4 10
14 4 18 3 8 5 9 20 21 16 12 2 8 17 19 18 20 27 33 11 29 33 27 4 4 -4 0 9 10 -3 14 40 28 16 13 9 21 4 41 10 -10 8 50 23
7 15 12 4 13 5 15 27 23 24 17 14 19 15 9 7 16 29 23 12 4 6 1 -13 -0 3 12 14 11 8 25 19 14 16 20 2 40 21 36 22 -54 10 2 3
4 11 11 2 12 8 2 3 13 11 1 14 17 27 13 19 30 17 -3 -1 2 18 10 0 10 3 17 24 8 17 23 14 29 25 -6 -1 52 23 21 37 9 -33 -23 11
9 4 2 9 9 6 4 9 10 13 12 13 9 5 4 2 7 7 6 13 14 12 18 13 5 17 15 16 36 18 8 10 12 48 -2 31 5 34 11 -2 6 37 10 33
10 8 1 8 20 7 10 14 7 10 -5 -1 10 -3 9 5 5 6 8 11 9 8 11 11 18 19 25 24 6 14 6 9 13 27 23 18 24 51 24 3 12 1 -10 -14
18 4 10 14 4 10 2 11 19 5 2 18 9 3 3 5 2 0 4 -2 10 5 15 13 6 19 21 20 17 12 3 15 10 14 20 9 43 39 20 -7 22 14 15 -13
1 11 10 3 12 13 10 5 21 14 -14 -11 -8 -0 -5 -1 -11 8 27 9 9 8 -2 4 1 4 21 30 13 10 13 25 18 21 8 7 15 21 -7 29 1 2 12 15
1 9 5 7 7 14 12 5 3 -8 8 18 8 8 9 11 2 13 15 7 8 1 -4 14 8 10 21 33 15 6 13 33 18 23 -1 3 29 12 17 20 16 9 1 3
-2 -1 6 3 4 0 5 17 25 19 25 14 23 14 3 20 10 4 7 8 1 -1 6 14 15 12 33 35 11 -25 33 32 29 25 18 -7 35 12 10 23 13 14 19 20
11 8 8 4 3 2 7 9 8 19 11 11 24 2 1 10 13 10 8 6 8 3 14 15 19 23 12 44 9 19 15 6 22 -4 -6 13 7 18 1 9 14 12 9 9
3 6 13 9 1 9 2 2 8 1 17 11 2 -0 3 6 5 5 7 0 9 16 21 21 15 11 25 45 10 -4 -1 9 24 24 -11 -8 13 12 3 3 1 3 2 2
Height
5549 5552 5555 5558 5561 5563 5567 5569 5574 5576 5576 5579 5583 5587 5592 5596 5597 5597 5598 5598 5601 5605 5608 5607 5610 5614 5619 5626 5630 5628 5632 5626 5627 5639 5652 5656 5657 5661 5669 5661 5667 5670 5673 5681
5538 5542 5545 5547 5549 5553 5555 5558 5562 5563 5563 5566 5572 5576 5578 5580 5582 5584 5584 5587 5589 5592 5594 5592 5596 5598 5607 5611 5614 5615 5619 5619 5619 5628 5631 5637 5638 5647 5651 5648 5650 5648 5653 5670
5528 5531 5534 5537 5539 5542 5545 5547 5549 5550 5552 5557 5559 5562 5566 5568 5570 5570 5569 5574 5573 5579 5579 5580 5580 5584 5592 5598 5600 5605 5602 5600 5604 5610 5615 5620 5619 5630 5637 5639 5633 5639 5639 5658
5517 5520 5523 5526 5527 5530 5533 5535 5537 5539 5542 5546 5548 5548 5552 5552 5555 5556 5559 5561 5564 5565 5565 5568 5570 5577 5583 5588 5590 5593 5594 5587 5592 5591 5596 5600 5605 5612 5617 5624 5626 5625 5636 5642
5506 5509 5512 5515 5516 5519 5521 5523 5526 5528 5533 5531 5531 5534 5538 5538 5544 5546 5550 5546 5553 5551 5552 5559 5560 5564 5567 5569 5573 5575 5578 5574 5576 5576 5584 5587 5586 5592 5602 5607 5612 5618 5623 5628
5496 5499 5501 5504 5506 5507 5510 5514 5515 5514 5520 5517 5516 5521 5527 5528 5531 5534 5536 5537 5537 5538 5545 5547 5546 5548 5551 5553 5555 5559 5563 5564 5563 5564 5572 5569 5568 5584 5588 5595 5602 5606 5606 5621
5485 5488 5491 5492 5494 5496 5499 5501 5501 5500 5506 5503 5507 5509 5511 5513 5519 5521 5524 5523 5524 5537 5534 5532 5531 5532 5533 5538 5541 5548 5550 5552 5551 5552 5556 5546 5564 5568 5574 5579 5585 5594 5597 5610
5473 5476 5478 5480 5482 5484 5486 5488 5487 5487 5490 5493 5496 5497 5503 5503 5506 5506 5511 5517 5522 5521 5520 5523 5519 5522 5523 5527 5532 5536 5539 5541 5538 5538 5542 5539 5552 5565 5563 5567 5568 5579 5584 5594
5461 5464 5466 5468 5471 5472 5473 5476 5474 5471 5477 5485 5490 5486 5489 5490 5494 5496 5501 5509 5507 5509 5509 5507 5507 5508 5512 5514 5516 5523 5525 5528 5530 5525 5526 5525 5548 5561 5559 5556 5550 5571 5571 5579
5450 5452 5454 5457 5459 5460 5460 5464 5461 5460 5463 5475 5475 5475 5480 5482 5483 5484 5491 5497 5495 5498 5498 5497 5495 5497 5501 5502 5506 5512 5513 5513 5513 5517 5514 5514 5544 5544 5543 5538 5556 5555 5555 5564
5439 5441 5443 5445 5447 5449 5448 5452 5451 5450 5454 5462 5461 5466 5465 5470 5472 5474 5487 5481 5483 5485 5485 5487 5491 5489 5491 5492 5497 5500 5501 5501 5502 5505 5504 5500 5537 5522 5523 5534 5537 5541 5543 5550
5429 5430 5432 5434 5437 5438 5439 5439 5442 5442 5439 5448 5448 5452 5456 5456 5461 5463 5467 5468 5472 5473 5474 5477 5481 5480 5482 5482 5483 5494 5486 5491 5493 5494 5489 5504 5510 5512 5518 5526 5530 5531 5534 5539
5418 5420 5422 5424 5426 5429 5430 5432 5435 5434 5432 5433 5433 5441 5446 5446 5450 5453 5450 5454 5460 5462 5467 5467 5465 5464 5474 5472 5475 5481 5479 5482 5478 5479 5485 5492 5497 5500 5509 5512 5513 5517 5520 5526
5409 5411 5413 5416 5420 5422 5423 5425 5427 5426 5425 5423 5423 5429 5431 5434 5434 5437 5436 5440 5444 5451 5453 5453 5455 5456 5462 5464 5466 5462 5470 5469 5466 5466 5470 5476 5485 5490 5493 5497 5504 5506 5505 5506
5401 5403 5406 5410 5412 5414 5416 5416 5416 5416 5419 5419 5420 5420 5422 5424 5426 5428 5429 5432 5435 5439 5441 5443 5445 5448 5451 5450 5451 5454 5461 5457 5454 5456 5467 5464 5471 5478 5479 5486 5494 5497 5496 5499
5394 5397 5401 5404 5406 5407 5408 5407 5408 5411 5412 5414 5415 5417 5416 5417 5418 5419 5420 5425 5427 5429 5432 5429 5437 5441 5440 5437 5438 5449 5447 5445 5444 5445 5454 5453 5458 5465 5470 5473 5482 5485 5486 5487
5388 5392 5395 5399 5400 5402 5403 5403 5404 5404 5408 5409 5410 5411 5412 5413 5413 5413 5414 5417 5419 5420 5423 5426 5428 5431 5425 5423 5428 5445 5438 5435 5436 5439 5441 5443 5449 5451 5455 5461 5468 5466 5476 5481
5383 5387 5390 5394 5396 5399 5400 5399 5399 5401 5404 5406 5408 5409 5410 5410 5410 5410 5412 5414 5415 5417 5417 5419 5422 5420 5415 5412 5428 5431 5428 5425 5424 5428 5430 5430 5436 5439 5442 5447 5454 5461 5466 5470
5378 5383 5386 5389 5392 5395 5397 5397 5398 5400 5404 5404 5405 5406 5407 5407 5408 5409 5410 5412 5413 5413 5414 5413 5411 5412 5409 5416 5414 5413 5414 5412 5415 5417 5419 5421 5426 5428 5432 5438 5446 5450 5456 5459
5372 5377 5381 5384 5388 5390 5393 5394 5396 5398 5400 5401 5403 5404 5405 5407 5407 5407 5409 5409 5408 5407 5409 5407 5406 5405 5407 5404 5401 5402 5405 5405 5405 5407 5411 5411 5415 5420 5425 5431 5438 5445 5447 5450
5366 5371 5376 5381 5384 5387 5388 5390 5393 5395 5398 5400 5401 5403 5404 5406 5406 5406 5406 5407 5406 5403 5404 5402 5400 5399 5397 5394 5395 5396 5397 5397 5398 5399 5402 5406 5411 5413 5419 5426 5431 5435 5439 5442
5361 5365 5370 5374 5377 5380 5381 5384 5388 5392 5395 5398 5399 5400 5402 5403 5403 5403 5404 5403 5401 5400 5398 5396 5395 5393 5388 5388 5386 5387 5389 5389 5391 5393 5397 5401 5404 5408 5414 5420 5422 5426 5432 5434
5355 5359 5363 5366 5368 5370 5373 5379 5384 5388 5391 5395 5396 5397 5398 5398 5399 5398 5397 5397 5398 5396 5393 5392 5391 5387 5384 5380 5380 5379 5381 5382 5382 5387 5392 5396 5399 5402 5408 5412 5416 5420 5423 5425
5349 5353 5357 5359 5361 5365 5369 5375 5378 5383 5386 5387 5389 5390 5392 5393 5393 5392 5393 5394 5392 5390 5389 5387 5385 5381 5377 5375 5375 5373 5372 5374 5376 5380 5387 5391 5394 5397 5402 5405 5409 5412 5415 5418
5342 5347 5350 5353 5358 5362 5366 5369 5373 5376 5378 5381 5382 5384 5386 5387 5387 5388 5389 5387 5386 5385 5384 5381 5377 5375 5372 5370 5368 5369 5369 5370 5373 5378 5383 5385 5388 5390 5393 5396 5400 5405 5408 5412
5336 5339 5345 5351 5355 5359 5362 5365 5368 5370 5372 5374 5377 5378 5380 5381 5381 5382 5382 5382 5381 5380 5378 5375 5373 5371 5369 5367 5366 5366 5368 5370 5371 5376 5379 5382 5383 5386 5389 5392 5395 5399 5402 5404
5329 5335 5341 5346 5351 5354 5358 5361 5363 5366 5368 5370 5371 5373 5373 5374 5375 5376 5376 5376 5376 5374 5373 5370 5369 5368 5366 5364 5367 5368 5367 5369 5371 5373 5376 5378 5379 5381 5384 5386 5388 5391 5394 5396